Temperature
-11 -11 -11 -11 -11 -10 -10 -10 -9 -8 -7 -6 -5 -5 -5 -5 -4 -4 -3 -1 1 3 5 6 7 9 10 11 12 13 13 14 14 14 14 15 15 14
-10 -10 -10 -10 -10 -10 -10 -9 -9 -9 -8 -7 -6 -6 -5 -5 -5 -4 -3 -1 1 3 4 6 7 8 9 10 11 12 12 13 13 14 14 14 14 14
-11 -10 -10 -10 -10 -10 -9 -9 -9 -9 -8 -8 -7 -6 -6 -5 -5 -4 -3 -1 1 3 4 6 7 7 8 10 11 11 12 12 13 13 13 13 13 14
-11 -11 -11 -10 -10 -10 -10 -9 -9 -9 -9 -8 -8 -7 -6 -6 -5 -4 -3 -1 0 2 4 5 6 7 8 9 10 11 11 11 12 12 13 13 13 13
-12 -12 -12 -11 -11 -10 -10 -10 -10 -9 -9 -9 -8 -8 -7 -6 -5 -4 -2 -1 0 2 3 5 6 7 7 8 9 11 11 11 11 12 12 12 12 12
-12 -12 -12 -12 -11 -10 -10 -10 -10 -10 -10 -9 -9 -8 -7 -6 -5 -4 -2 -1 0 1 3 4 6 6 7 8 9 10 11 11 11 12 12 12 12 12
-12 -12 -12 -12 -11 -11 -11 -11 -11 -11 -10 -10 -9 -9 -8 -7 -5 -4 -2 -1 0 1 2 4 5 6 7 7 8 9 11 11 12 12 12 12 12 12
-13 -13 -12 -12 -12 -11 -11 -11 -11 -11 -11 -10 -10 -10 -9 -8 -6 -5 -3 -1 0 1 2 4 5 6 6 7 8 9 10 11 12 12 12 12 12 12
-13 -13 -13 -12 -12 -11 -12 -12 -12 -11 -11 -11 -11 -10 -10 -9 -7 -5 -4 -2 0 1 2 4 5 6 6 7 8 9 10 11 11 12 12 12 12 12
-13 -13 -13 -12 -12 -11 -12 -12 -12 -11 -11 -11 -11 -11 -10 -9 -7 -6 -4 -2 -1 1 2 3 5 5 6 7 7 8 9 10 11 11 12 12 12 12
-12 -13 -13 -12 -12 -12 -12 -12 -12 -11 -11 -11 -11 -10 -9 -8 -7 -5 -4 -3 -1 1 2 3 4 5 6 6 7 8 9 10 11 11 11 12 12 12
-12 -12 -13 -12 -12 -12 -13 -13 -12 -12 -11 -10 -10 -10 -9 -8 -7 -5 -4 -3 -1 0 1 3 4 5 6 6 7 7 8 9 10 11 11 11 11 11
-12 -13 -13 -13 -13 -13 -13 -13 -13 -12 -11 -11 -11 -10 -9 -8 -7 -5 -4 -3 -2 -0 1 2 3 5 6 6 6 7 8 9 9 10 10 11 11 11
-13 -13 -13 -13 -13 -13 -13 -13 -13 -12 -12 -12 -12 -11 -10 -8 -6 -5 -4 -3 -2 -1 0 1 2 4 5 6 6 7 7 8 9 9 10 10 10 10
-13 -13 -13 -13 -13 -13 -14 -13 -13 -13 -12 -12 -12 -12 -11 -9 -7 -5 -4 -3 -2 -1 -0 1 2 3 4 5 6 6 7 8 8 9 9 10 10 10
-12 -13 -13 -13 -13 -13 -13 -13 -13 -13 -13 -13 -12 -12 -10 -9 -7 -5 -4 -3 -2 -1 -1 0 1 2 3 5 5 6 7 7 8 9 9 9 9 9
-12 -12 -13 -13 -13 -13 -13 -13 -13 -13 -13 -13 -12 -11 -10 -9 -8 -6 -4 -3 -3 -2 -1 -0 1 2 3 4 5 6 6 7 7 8 8 8 8 9
-11 -12 -12 -13 -13 -13 -13 -13 -14 -13 -13 -13 -12 -11 -11 -10 -9 -7 -5 -4 -3 -2 -1 -0 0 1 2 3 4 5 6 6 6 7 8 8 7 7
-11 -12 -12 -12 -13 -13 -13 -13 -13 -13 -13 -13 -12 -12 -11 -11 -10 -8 -7 -5 -4 -2 -2 -1 -0 1 2 2 2 3 4 5 5 5 6 6 6 5
-11 -12 -12 -12 -12 -12 -13 -13 -13 -13 -13 -13 -12 -12 -12 -11 -10 -10 -8 -7 -5 -4 -2 -1 -0 0 1 1 1 2 3 4 4 4 4 4 3 3
-11 -11 -11 -11 -11 -12 -12 -12 -12 -13 -13 -13 -13 -12 -12 -11 -11 -10 -10 -8 -7 -5 -3 -2 -1 -1 0 1 1 1 1 1 3 4 3 3 2 1
-11 -11 -11 -11 -11 -11 -11 -12 -12 -12 -12 -13 -12 -12 -12 -12 -11 -11 -10 -9 -8 -7 -5 -4 -3 -2 -1 0 0 -0 -0 -0 0 1 2 3 3 1
-10 -10 -10 -10 -10 -10 -11 -11 -11 -12 -12 -12 -12 -12 -12 -12 -12 -11 -11 -10 -9 -8 -7 -5 -4 -3 -2 -1 -1 -1 -1 -1 -1 0 0 1 2 2
Wind_Speed
12 13 11 11 11 11 11 11 12 13 14 14 11 10 9 10 14 14 14 17 18 19 19 17 15 13 11 10 10 14 20 24 26 28 29 31 33 33
11 11 11 10 9 9 9 10 10 12 14 13 13 14 13 12 16 16 15 19 21 20 19 17 15 13 10 9 9 13 16 18 23 27 29 29 30 29
13 13 13 13 10 9 9 9 9 10 13 14 14 14 16 15 14 13 13 13 13 17 18 17 15 12 10 9 9 12 16 17 20 24 26 26 27 26
15 14 15 13 15 12 11 12 11 11 12 16 15 14 16 15 14 14 12 11 11 14 16 16 15 12 10 10 10 11 17 19 19 22 24 24 25 25
14 14 15 15 16 14 14 13 12 12 12 13 14 13 12 12 12 12 12 11 11 12 14 16 15 12 11 10 10 11 17 22 24 25 25 25 25 25
13 14 14 15 16 17 14 14 13 13 12 12 12 12 11 11 8 7 8 8 9 9 11 11 12 12 11 11 11 11 16 22 25 26 26 26 25 25
13 14 15 18 21 17 13 14 14 12 11 11 11 10 9 9 7 6 7 7 8 7 7 9 9 8 8 9 10 11 14 20 23 25 26 27 27 26
13 14 15 16 21 21 19 19 17 14 12 10 10 10 11 10 9 8 7 5 5 3 5 7 8 8 7 7 7 9 12 16 20 24 26 27 27 26
13 14 13 16 20 15 14 18 17 17 15 12 11 11 12 11 11 10 8 6 5 4 3 4 7 9 7 7 8 9 11 14 17 20 24 26 27 27
12 14 15 16 17 18 14 14 14 11 12 11 10 10 10 11 10 9 10 10 9 7 5 3 4 6 7 6 10 10 11 13 15 18 21 24 25 27
11 13 15 16 22 24 17 15 16 13 13 16 15 13 13 13 11 7 7 5 4 2 1 2 1 3 5 5 7 10 11 12 14 16 19 22 24 25
11 12 15 20 23 23 16 15 16 15 14 14 12 12 10 10 10 6 6 5 4 2 3 3 1 1 3 2 4 6 7 9 13 15 18 22 25 18
10 11 12 22 22 22 19 15 18 17 13 12 10 9 9 8 7 7 5 5 5 3 5 5 3 2 2 2 2 4 5 5 7 9 16 22 25 19
10 10 13 20 20 20 18 21 22 18 11 11 10 10 10 10 9 9 7 7 7 8 8 7 3 3 2 2 2 3 4 5 6 7 9 16 19 21
8 13 15 18 17 15 19 22 18 13 12 12 12 11 10 11 10 8 7 6 6 7 6 5 4 3 2 1 1 3 4 3 5 7 8 11 11 16
9 11 13 14 13 15 16 15 13 13 13 12 12 12 11 11 10 9 7 6 3 2 3 4 4 3 2 2 0 3 4 4 5 8 9 9 8 10
10 8 8 9 10 11 11 12 12 13 13 13 13 12 12 12 11 10 8 6 4 4 4 5 4 4 7 7 2 4 8 8 8 11 12 12 9 9
10 8 9 9 10 10 11 12 12 13 13 13 13 13 12 12 11 10 9 7 6 5 5 4 3 1 3 7 12 3 7 9 8 10 13 16 12 9
9 9 9 9 9 9 9 10 11 12 12 13 13 13 13 12 12 11 11 9 8 7 6 5 4 1 3 3 7 14 5 10 11 11 11 14 14 11
9 10 9 8 8 8 8 9 10 11 12 12 13 13 13 12 12 12 11 11 9 8 7 7 6 5 3 4 3 7 14 7 13 16 15 16 15 21
10 10 10 9 8 7 7 7 8 9 11 11 12 13 12 12 12 12 11 14 11 9 8 7 7 6 2 4 7 6 10 17 13 13 19 19 18 14
10 10 10 9 8 7 6 6 7 8 9 10 11 11 12 12 12 13 12 11 10 9 8 7 7 5 4 7 11 11 12 14 19 25 21 12 9 11
10 10 10 9 8 6 5 5 6 6 7 8 9 10 11 11 11 11 11 10 10 10 8 7 7 7 8 9 12 13 16 14 12 15 16 23 29 33
Wind_Direction
298 291 284 279 276 272 270 270 277 291 297 301 301 298 299 291 287 285 281 281 283 284 285 284 286 290 285 284 263 230 211 199 190 186 188 192 194 196
325 314 303 296 292 289 284 281 277 280 288 293 298 298 298 291 286 281 276 277 275 273 272 271 272 276 281 276 260 214 198 191 183 182 185 187 190 192
337 334 332 325 321 318 312 303 298 292 291 294 297 299 298 294 288 278 271 266 263 260 260 261 261 263 271 270 254 211 190 187 183 180 180 183 186 187
333 332 331 331 330 328 324 316 310 303 297 298 299 300 299 297 289 279 268 258 253 251 249 252 252 251 256 263 252 214 190 187 186 182 181 182 186 186
330 330 329 328 329 330 328 324 319 313 303 297 299 301 300 298 293 279 265 253 250 245 241 242 241 238 242 253 252 220 193 186 186 184 182 181 184 185
331 330 328 325 326 327 329 329 325 317 309 303 302 305 304 307 294 285 274 251 244 238 231 228 225 224 227 240 245 224 198 189 186 183 180 179 179 179
335 332 327 327 329 330 332 332 329 322 315 312 308 310 316 323 318 307 292 279 248 234 227 220 211 209 213 225 235 219 196 188 185 182 179 176 175 176
337 334 330 329 330 330 331 333 331 326 324 319 311 312 316 321 321 317 309 287 239 214 235 222 204 201 203 212 214 207 192 185 183 180 178 176 174 174
337 334 334 333 334 328 335 336 329 326 329 324 312 312 313 319 319 317 315 305 289 313 275 220 199 201 195 204 199 202 191 182 180 178 175 173 172 172
334 333 334 334 333 345 343 335 329 330 328 322 314 312 311 313 313 306 300 297 282 264 257 233 190 194 186 190 188 192 187 181 178 175 174 171 170 169
335 336 337 338 341 350 348 339 335 338 336 331 329 325 324 324 330 322 312 297 270 247 268 279 195 178 171 182 183 181 177 176 177 175 173 171 168 165
339 339 340 346 349 352 351 345 342 343 338 334 333 333 333 331 338 332 315 302 295 304 2 338 341 147 141 152 172 173 170 170 170 172 172 169 167 169
341 341 343 349 353 353 355 352 349 348 338 335 336 340 342 341 338 328 304 283 284 306 357 347 339 7 103 125 159 165 160 154 163 169 170 168 168 168
343 343 345 350 353 355 357 357 356 354 348 345 347 350 349 345 338 326 306 280 260 267 298 314 322 354 34 119 142 139 139 146 152 157 164 165 163 157
342 342 346 351 352 354 357 360 359 356 354 353 352 350 346 341 339 336 327 305 272 259 275 284 288 317 354 46 120 138 120 108 139 144 151 158 155 150
342 338 344 349 354 356 358 359 359 359 357 353 350 349 350 352 357 354 350 346 335 322 308 313 313 323 357 358 45 131 124 123 117 117 116 115 125 139
345 341 346 350 354 357 358 360 0 360 359 356 356 356 358 359 1 1 1 2 13 0 349 349 5 64 65 35 86 110 121 115 116 119 114 102 83 105
354 351 350 349 351 352 354 356 359 1 358 357 358 360 360 1 2 4 8 12 14 7 1 350 336 9 51 47 25 81 113 115 110 111 120 116 99 83
357 353 350 346 344 346 350 353 356 357 357 358 1 1 1 3 6 8 10 10 10 9 7 1 355 6 109 87 19 17 87 121 114 105 107 115 113 104
355 350 348 343 340 340 344 348 351 355 360 360 2 3 3 5 8 9 11 10 9 10 15 18 16 15 61 108 89 34 28 91 123 116 110 104 101 102
348 345 344 342 338 335 336 340 345 353 359 359 3 3 4 7 9 9 9 11 15 16 18 14 0 4 48 92 95 72 51 50 80 122 128 123 119 117
341 340 339 338 337 333 330 333 340 351 359 3 4 4 4 7 8 9 11 11 13 14 15 15 13 27 55 104 107 102 90 78 67 67 67 88 127 139
336 335 334 335 336 331 325 325 330 343 356 1 4 5 5 7 9 10 12 15 16 18 22 33 45 57 71 94 105 105 101 96 91 82 71 80 94 108
Height
1423 1417 1412 1408 1404 1401 1397 1395 1392 1385 1379 1376 1374 1372 1371 1368 1366 1365 1365 1366 1368 1371 1375 1379 1384 1388 1392 1397 1403 1409 1416 1425 1434 1444 1454 1463 1472 1481
1423 1417 1412 1407 1402 1398 1394 1391 1388 1384 1377 1372 1370 1368 1365 1363 1362 1361 1360 1360 1362 1365 1369 1374 1379 1383 1387 1392 1397 1403 1409 1416 1425 1435 1445 1456 1465 1474
1423 1417 1412 1407 1402 1397 1392 1388 1384 1380 1374 1368 1365 1362 1360 1358 1356 1355 1354 1355 1357 1360 1364 1369 1373 1378 1382 1386 1392 1397 1403 1409 1417 1426 1436 1447 1458 1467
1421 1416 1410 1405 1400 1395 1390 1385 1381 1376 1372 1365 1360 1357 1354 1352 1350 1349 1349 1351 1352 1355 1358 1363 1368 1373 1377 1382 1387 1392 1398 1405 1412 1420 1429 1440 1450 1461
1419 1414 1408 1404 1398 1393 1388 1383 1378 1373 1368 1363 1357 1353 1349 1347 1345 1344 1345 1346 1348 1350 1353 1357 1363 1369 1373 1378 1383 1388 1394 1401 1409 1416 1424 1433 1445 1455
1418 1412 1407 1402 1397 1391 1386 1380 1375 1369 1364 1360 1354 1349 1346 1343 1341 1341 1342 1343 1344 1346 1349 1353 1358 1364 1369 1374 1379 1384 1391 1398 1405 1412 1420 1429 1439 1449
1416 1410 1405 1400 1395 1390 1384 1378 1372 1366 1361 1357 1352 1347 1343 1340 1339 1338 1338 1339 1341 1343 1345 1349 1353 1359 1364 1370 1375 1380 1386 1393 1400 1408 1416 1425 1434 1444
1414 1408 1403 1398 1392 1386 1381 1375 1369 1364 1359 1354 1349 1345 1341 1339 1336 1335 1336 1337 1339 1340 1342 1345 1349 1355 1360 1365 1370 1376 1381 1388 1396 1404 1412 1421 1430 1440
1413 1408 1402 1396 1390 1383 1377 1371 1365 1360 1356 1351 1346 1342 1339 1336 1334 1333 1333 1334 1334 1336 1339 1342 1346 1351 1356 1361 1366 1372 1378 1385 1393 1401 1409 1417 1427 1436
1412 1407 1401 1395 1389 1382 1375 1368 1362 1357 1351 1346 1343 1339 1336 1333 1332 1331 1331 1331 1332 1333 1336 1339 1343 1348 1353 1358 1363 1369 1374 1381 1389 1397 1405 1414 1423 1432
1411 1405 1400 1394 1388 1381 1373 1366 1360 1354 1348 1343 1338 1334 1332 1330 1329 1330 1330 1331 1331 1332 1334 1337 1340 1344 1350 1355 1360 1366 1372 1379 1386 1394 1401 1410 1420 1430
1409 1404 1399 1393 1386 1380 1373 1366 1359 1352 1345 1339 1335 1332 1329 1327 1327 1327 1327 1329 1329 1331 1332 1335 1337 1342 1347 1352 1357 1363 1370 1376 1383 1391 1399 1407 1416 1426
1407 1402 1397 1392 1385 1379 1373 1366 1360 1352 1345 1339 1334 1330 1328 1326 1325 1325 1326 1327 1329 1330 1331 1333 1336 1339 1343 1349 1355 1360 1367 1373 1380 1388 1396 1404 1413 1421
1407 1402 1397 1391 1385 1379 1373 1366 1359 1352 1345 1340 1335 1330 1327 1324 1323 1324 1325 1326 1328 1330 1331 1333 1335 1338 1343 1347 1352 1358 1365 1372 1379 1386 1393 1401 1410 1418
1406 1401 1396 1391 1385 1379 1374 1367 1359 1353 1347 1341 1336 1332 1328 1325 1323 1323 1324 1326 1328 1330 1331 1333 1336 1339 1342 1346 1350 1356 1363 1370 1376 1383 1391 1399 1406 1414
1406 1401 1396 1391 1386 1381 1375 1369 1362 1357 1351 1345 1339 1334 1330 1327 1324 1324 1325 1326 1328 1330 1332 1334 1336 1339 1342 1345 1350 1355 1361 1367 1373 1380 1387 1396 1404 1411
1407 1402 1397 1392 1387 1382 1377 1372 1366 1360 1354 1348 1342 1337 1333 1329 1327 1326 1326 1327 1329 1331 1333 1335 1337 1339 1342 1346 1351 1354 1360 1365 1371 1377 1384 1392 1401 1408
1408 1403 1398 1394 1389 1385 1380 1375 1370 1364 1358 1353 1347 1342 1337 1333 1330 1328 1328 1328 1330 1332 1334 1336 1338 1341 1345 1348 1351 1355 1359 1364 1370 1376 1383 1389 1398 1406
1410 1405 1401 1396 1392 1388 1383 1379 1374 1369 1364 1358 1353 1347 1342 1338 1335 1332 1331 1331 1331 1333 1335 1337 1340 1343 1345 1348 1353 1357 1360 1364 1370 1376 1383 1389 1397 1406
1412 1407 1403 1399 1394 1390 1386 1382 1378 1373 1368 1363 1358 1353 1348 1344 1340 1337 1335 1334 1334 1335 1337 1339 1341 1343 1346 1349 1353 1358 1362 1365 1369 1375 1382 1389 1398 1408
1413 1409 1405 1401 1396 1392 1388 1385 1381 1377 1373 1368 1363 1358 1354 1350 1346 1343 1341 1339 1338 1338 1339 1340 1342 1345 1348 1351 1355 1360 1365 1368 1373 1376 1383 1389 1398 1408
1414 1411 1407 1403 1398 1394 1391 1387 1384 1381 1377 1373 1368 1364 1360 1356 1352 1349 1346 1344 1342 1342 1342 1343 1345 1347 1350 1352 1355 1360 1365 1370 1375 1380 1387 1392 1396 1406
1416 1412 1408 1404 1400 1396 1393 1390 1387 1384 1381 1378 1374 1370 1366 1362 1358 1355 1352 1350 1348 1347 1346 1346 1348 1350 1352 1354 1357 1362 1368 1374 1379 1384 1391 1396 1401 1408